Home > Weather > Salvador > Past weeks

Flag for Brazil Weather for the Past 2 Weeks in Salvador, Bahia, Brazil

Now
81 °F

Passing clouds.


Feels Like: 84 °F
Forecast: 76 / 85 °F
Wind: 7 mph from East

Location: Salvador Aeroporto

Current Time: Feb 9, 2016 at 3:05:00 AM

Latest Report: Feb 9, 2016 at 2:00 AM


Visibility: N/A

Pressure: 29.98 "Hg

Humidity: 70%

Dew point: 70 °F

Location of SalvadorLocation

Historic Weather in Salvador — Graph

°F

Salvador Temperature Yesterday

Maximum temperature yesterday: 88 °F (at 11:00 AM)
Minimum temperature yesterday: 75 °F (at 6:00 AM)
Average temperature yesterday: 83 °F

High & Low Weather Summary for the Past Weeks

 TemperatureHumidityPressure
High90 °F (Jan 28, 12:00 PM)89% (Jan 25, 2:00 AM)30.07 "Hg (Jan 25, 2:00 AM)
Low75 °F (Jan 26, 4:00 AM)49% (Feb 8, 11:00 AM)29.83 "Hg (Jan 26, 5:00 PM)
Average83 °F71%29.96 "Hg
* Reported Jan 25 1:00 AM — Feb 9 1:00 AM, Salvador, Weather by CustomWeather, © 2016

Note: Actual official high and low records may vary slightly from our data, if they occured in-between our weather recording intervals... More about our weather records

Advertising

Salvador Weather History for the Previous 24 Hours

 ConditionsComfort  
Time TempWeatherWind HumidityBarometerVisibility
1:00 AM
Tue, Feb 9
81 °FPassing clouds.9 mph70%30.01 "HgN/A
12:00 AM81 °FPassing clouds.8 mph74%30.01 "HgN/A
11:00 PM
Mon, Feb 8
81 °FPassing clouds.9 mph70%30.04 "HgN/A
10:00 PM82 °FPassing clouds.10 mph70%30.04 "HgN/A
9:00 PM81 °FPassing clouds.7 mph74%30.04 "HgN/A
8:00 PM81 °FPassing clouds.8 mph74%30.01 "HgN/A
7:00 PM82 °FPassing clouds.9 mph70%30.01 "HgN/A
6:00 PM82 °FPassing clouds.9 mph70%29.98 "HgN/A
5:00 PM84 °FPassing clouds.10 mph62%29.98 "HgN/A
4:00 PM86 °FPassing clouds.12 mph62%29.98 "HgN/A
3:00 PM86 °FPassing clouds.12 mph62%30.01 "HgN/A
2:00 PM88 °FPassing clouds.9 mph59%30.01 "HgN/A
1:00 PM88 °FScattered clouds.12 mph59%30.04 "HgN/A
12:00 PM88 °FScattered clouds.9 mph52%30.04 "HgN/A
11:00 AM88 °FScattered clouds.10 mph49%30.07 "HgN/A
10:00 AM86 °FBroken clouds.8 mph59%30.07 "HgN/A
9:00 AM86 °FScattered clouds.7 mph59%30.07 "HgN/A
8:00 AM84 °FScattered clouds.7 mph62%30.04 "HgN/A
7:00 AM82 °FPassing clouds.2 mph70%30.04 "HgN/A
6:00 AM75 °FPassing clouds.2 mph83%29.98 "HgN/A
5:00 AM79 °FPassing clouds.1 mph70%29.98 "HgN/A
4:00 AM79 °FPassing clouds.6 mph74%29.98 "HgN/A
3:00 AM79 °FPassing clouds.8 mph74%29.95 "HgN/A
Weather by CustomWeather, © 2016

See weather overviewHow to use our weather pages